Regional Weather Roundup
Issued by NWS

Home | Current Version | Previous Version | Graphics & Text | Print | Product List | Glossary On
Versions: 1 2 3 4 5 6 7 8 9 10 11 12 13 14 15 16 17 18 19 20 21 22 23 24 25 26 27 28 29 30 31 32 33 34 35 36 37 38 39 40 41 42 43 44 45 46 47 48 49 50
000
ASUS43 KOAX 191402
RWRNE

WEATHER ROUNDUP FOR NEBRASKA
NATIONAL WEATHER SERVICE OMAHA NE
800 AM CST FRI JAN 19 2018

NOTES: SATELLITE DATA IS BEING USED TO AUGMENT CLOUD COVER ABOVE
       12000 FEET.
       "FAIR" INDICATES FEW OR NO CLOUDS BELOW 12,000 FEET WITH NO
       SIGNIFICANT WEATHER AND/OR OBSTRUCTIONS TO VISIBILITY.


NEZ001>004-019>022-054>056-191500-
NEBRASKA PANHANDLE

CITY           SKY/WX    TMP DP  RH WIND       PRES   REMARKS
SCOTTSBLUFF    CLOUDY    30  25  81 CALM      29.73S
ALLIANCE       CLOUDY    37  27  67 W9        29.69S WCI  30
CHADRON        MOCLDY    46  27  47 SW10      29.62F
GORDON         FAIR      44  28  52 SW9       29.63F
KIMBALL        CLOUDY    36  21  55 W10       29.76S WCI  28
SIDNEY         CLOUDY    34  22  61 SW10      29.73F WCI  26
$$

NEZ057>060-069>072-079>082-191500-
SOUTHWEST NEBRASKA

CITY           SKY/WX    TMP DP  RH WIND       PRES   REMARKS
NORTH PLATTE   CLOUDY    27  23  85 NW5       29.73S WCI  22
IMPERIAL       CLOUDY    30  22  72 CALM      29.75F
LEXINGTON      CLOUDY    28  23  84 SW3       29.73F
MCCOOK         CLOUDY    27  21  78 SW7       29.76S WCI  19
OGALLALA       CLOUDY    30  25  83 W6        29.73F WCI  24
$$

NEZ005>010-023>029-035>040-094-191500-
NORTH CENTRAL NEBRASKA

CITY           SKY/WX    TMP DP  RH WIND       PRES   REMARKS
VALENTINE      CLOUDY    36  29  75 SW7       29.61F WCI  30
AINSWORTH      CLOUDY    42  31  66 SW9       29.62S
BROKEN BOW     CLOUDY    37  26  64 SW6       29.68F WCI  32
O`NEILL        CLOUDY    42  31  65 SW9       29.61F
ORD            CLOUDY    27  23  85 CALM      29.67S
THEDFORD       CLOUDY    45  26  48 NW7       29.67S
$$

NEZ041-046>049-061>064-073>077-083>087-191500-
SOUTH CENTRAL NEBRASKA

CITY           SKY/WX    TMP DP  RH WIND       PRES   REMARKS
GRAND ISLAND   CLOUDY    33  24  69 SW10      29.71F WCI  25
AURORA         CLOUDY    32  22  65 SW13      29.72F WCI  23
HASTINGS       CLOUDY    32  18  56 S8        29.75F WCI  25
HEBRON         CLOUDY    33  22  64 SW8       29.79F WCI  26
HOLDREGE       CLOUDY    36  23  59 SW8       29.74S WCI  30
KEARNEY        CLOUDY    32  23  69 SW7       29.73F WCI  26
YORK           CLOUDY    28  23  80 S12       29.74F WCI  18
$$

NEZ011>018-030>034-042>045-191500-
NORTHEAST NEBRASKA

CITY           SKY/WX    TMP DP  RH WIND       PRES   REMARKS
NORFOLK        CLOUDY    31  26  82 S7        29.65F WCI  24
ALBION         PTCLDY    35  27  72 SE6       29.68S WCI  30
BLAIR          CLOUDY    33  24  69 S13       29.73S WCI  24
COLUMBUS       CLOUDY    31  24  75 SW6       29.71F WCI  25
FREMONT        CLOUDY    34  23  63 S9        29.72F WCI  26
TEKAMAH        CLOUDY    32  23  69 S15       29.71F WCI  22
WAYNE          PTCLDY    34  29  80 S9        29.65S WCI  27
$$

NEZ050>053-065>068-078-088>093-191500-
SOUTHEAST NEBRASKA

CITY           SKY/WX    TMP DP  RH WIND       PRES   REMARKS
LINCOLN        CLOUDY    33  22  63 S9        29.78F WCI  25
OMAHA EPPLEY   CLOUDY    27  22  81 SE12      29.77S WCI  17
BEATRICE       CLOUDY    32  24  73 S9        29.81F WCI  24
FALLS CITY     CLOUDY    32  22  66 S7        29.85S WCI  26
NEBRASKA CITY  CLOUDY    33  26  73 SW16      29.79F WCI  23
PLATTSMOUTH    CLOUDY    33  25  72 S10       29.77S WCI  24
$$

NEZ044-045-051>053-067-191500-
OMAHA AREA

CITY           SKY/WX    TMP DP  RH WIND       PRES   REMARKS
OMAHA EPPLEY   CLOUDY    27  22  81 SE12      29.77S WCI  17
BLAIR          CLOUDY    33  24  69 S13       29.73S WCI  24
FREMONT        CLOUDY    34  23  63 S9        29.72F WCI  26
MILLARD        CLOUDY    35  25  67 S7        29.77R WCI  29
OFFUTT AFB     CLOUDY    26  21  81 SE5       29.77S WCI  20
PLATTSMOUTH    CLOUDY    33  25  72 S10       29.77S WCI  24
WAHOO          FAIR      34  22  61 S12       29.74S WCI  25
$$




USA.gov is the U.S. government's official web portal to all federal, state and local government web resources and services.